Date String (YYYY-MM-DD hh:mm:ss) UTC,Instrument flags,Ambient pressure (hPa),Sample flow (lpm),Bypass flow (lpm),Sample temperature (°C),Ambient temperature (°C),ASC tube jacket temperature (°C),LED temperature (°C),Box temperature (°C),Sample RH (%),Span deviation,Mass concentration (μg/m³),Mass concentration (μg/m³),Mass concentration (μg/m³)
DateTimeUTC,F1_M11,P_M11,Q1_M11,Q2_M11,T1_M11,T2_M11,T3_M11,T4_M11,T5_M11,U1_M11,ZSPAN_M11,X2_M11,X0_M11,X1_M11
2021-08-29 23:00:00,,0828.2,5.02,0.00,29.4,28.3,00.0,38.3,31.3,29.1,0002.1,0016.30,0028.76,0015.26
2021-08-29 23:01:00,,0828.3,5.00,0.00,29.3,26.8,00.0,38.3,30.9,29.1,0001.9,0016.32,0029.03,0015.24
2021-08-29 23:02:00,,0828.2,5.01,0.00,29.2,25.8,00.0,38.3,30.6,28.7,0001.9,0016.36,0028.42,0015.25
2021-08-29 23:03:00,,0828.2,4.99,0.00,29.1,25.9,00.0,38.3,30.6,28.9,0002.1,0016.38,0028.10,0015.25
2021-08-29 23:04:00,,0828.3,5.00,0.00,29.1,26.4,00.0,38.2,30.7,29.2,0002.0,0016.37,0028.62,0015.24
2021-08-29 23:05:00,,0828.3,4.99,0.00,29.1,26.9,00.0,38.2,30.8,29.3,0001.9,0016.41,0028.90,0015.24
2021-08-29 23:06:00,,0828.5,5.01,0.00,29.1,27.3,00.0,38.2,30.9,29.9,0001.6,0016.42,0028.59,0015.23
2021-08-29 23:07:00,,0828.3,4.99,0.00,29.2,27.7,00.0,38.2,31.1,29.0,0001.5,0016.42,0027.65,0015.21
2021-08-29 23:08:00,,0828.3,5.00,0.00,29.2,28.0,00.0,38.2,31.2,29.0,0001.6,0016.42,0026.85,0015.22
2021-08-29 23:09:00,,0828.3,5.01,0.00,29.3,28.3,00.0,38.2,31.2,29.1,0001.5,0016.41,0025.20,0015.24
2021-08-29 23:10:00,,0828.2,5.00,0.00,29.3,28.5,00.0,38.3,31.3,29.0,0001.3,0016.39,0025.05,0015.23
2021-08-29 23:11:00,,0828.2,5.00,0.00,29.4,28.7,00.0,38.3,31.4,28.6,0001.4,0016.33,0024.63,0015.23
2021-08-29 23:12:00,,0828.2,4.99,0.00,29.5,28.2,00.0,38.3,31.3,28.4,0001.4,0016.29,0023.67,0015.23
2021-08-29 23:13:00,,0828.2,5.00,0.00,29.3,26.5,00.0,38.3,30.9,28.8,0001.7,0016.23,0023.76,0015.22
2021-08-29 23:14:00,,0828.1,5.01,0.00,29.2,25.8,00.0,38.3,30.6,29.0,0001.7,0016.18,0023.48,0015.21
2021-08-29 23:15:00,,0828.1,4.99,0.00,29.2,26.1,00.0,38.3,30.7,29.0,0001.6,0016.14,0022.86,0015.20
2021-08-29 23:16:00,,0828.1,5.00,0.00,29.1,26.6,00.0,38.3,30.8,29.3,0001.6,0016.07,0022.69,0015.15
2021-08-29 23:17:00,,0828.3,5.00,0.00,29.1,27.1,00.0,38.2,30.9,29.3,0001.8,0016.00,0022.48,0015.12
2021-08-29 23:18:00,,0828.3,4.99,0.00,29.2,27.5,00.0,38.2,31.0,29.3,0001.8,0015.97,0022.85,0015.07
2021-08-29 23:19:00,,0828.2,4.99,0.00,29.2,27.8,00.0,38.3,31.1,29.3,0001.7,0015.95,0023.75,0015.03
2021-08-29 23:20:00,,0828.2,5.00,0.00,29.3,28.1,00.0,38.3,31.2,29.2,0001.8,0015.90,0023.77,0014.97
2021-08-29 23:21:00,,0828.3,5.01,0.00,29.3,28.4,00.0,38.3,31.3,29.1,0001.9,0015.83,0022.81,0014.94
2021-08-29 23:22:00,,0828.2,5.00,0.00,29.4,28.2,00.0,38.3,31.2,28.7,0001.7,0015.83,0022.87,0014.92
2021-08-29 23:23:00,,0828.2,4.99,0.00,29.3,26.5,00.0,38.3,30.8,28.9,0001.7,0015.81,0023.22,0014.90
2021-08-29 23:24:00,,0828.2,5.00,0.00,29.1,25.6,00.0,38.3,30.5,29.0,0001.5,0015.78,0023.09,0014.88
2021-08-29 23:25:00,,0828.1,5.01,0.00,29.1,25.9,00.0,38.3,30.6,29.0,0001.5,0015.77,0023.36,0014.85
2021-08-29 23:26:00,,0828.1,4.98,0.00,29.0,26.4,00.0,38.2,30.7,29.2,0001.8,0015.77,0023.35,0014.81
2021-08-29 23:27:00,,0828.1,5.01,0.00,29.1,26.9,00.0,38.2,30.8,29.7,0002.0,0015.82,0024.01,0014.81
2021-08-29 23:28:00,,0828.1,5.00,0.00,29.1,27.3,00.0,38.2,31.0,29.6,0001.9,0015.84,0024.31,0014.80
2021-08-29 23:29:00,,0828.1,5.00,0.00,29.1,27.7,00.0,38.2,31.1,29.7,0002.0,0015.85,0023.59,0014.84
2021-08-29 23:30:00,,0828.1,5.00,0.00,29.2,28.0,00.0,38.2,31.2,29.5,0002.0,0015.85,0022.54,0014.86
2021-08-29 23:31:00,,0828.1,5.00,0.00,29.3,28.3,00.0,38.2,31.2,29.4,0001.8,0015.90,0022.73,0014.88
2021-08-29 23:32:00,,0828.1,5.01,0.00,29.3,28.5,00.0,38.3,31.3,29.3,0001.8,0015.95,0022.85,0014.87
2021-08-29 23:33:00,,0828.1,5.01,0.00,29.4,28.7,00.0,38.3,31.4,29.2,0001.8,0015.93,0022.94,0014.86
2021-08-29 23:34:00,,0828.1,4.99,0.00,29.5,28.7,00.0,38.3,31.4,29.2,0001.9,0015.93,0022.84,0014.85
2021-08-29 23:35:00,,0828.0,5.01,0.00,29.4,27.3,00.0,38.3,31.1,29.3,0002.0,0015.93,0022.61,0014.83
2021-08-29 23:36:00,,0828.0,4.99,0.00,29.3,26.0,00.0,38.3,30.7,29.5,0001.9,0015.92,0022.37,0014.83
2021-08-29 23:37:00,,0828.0,5.01,0.00,29.2,25.9,00.0,38.3,30.6,29.8,0001.7,0015.92,0022.26,0014.86
2021-08-29 23:38:00,,0828.0,4.99,0.00,29.1,26.4,00.0,38.3,30.7,29.7,0001.8,0015.92,0021.61,0014.88
2021-08-29 23:39:00,,0828.0,4.99,0.00,29.1,26.9,00.0,38.2,30.9,29.7,0002.0,0015.96,0022.02,0014.90
2021-08-29 23:40:00,,0828.0,5.00,0.00,29.2,27.3,00.0,38.2,31.0,29.6,0002.0,0015.97,0021.97,0014.90
2021-08-29 23:41:00,,0828.0,5.00,0.00,29.2,27.7,00.0,38.2,31.1,29.4,0002.0,0015.97,0021.94,0014.88
2021-08-29 23:42:00,,0828.0,5.01,0.00,29.3,28.0,00.0,38.3,31.2,29.6,0002.2,0015.95,0021.72,0014.89
2021-08-29 23:43:00,,0828.1,4.99,0.00,29.3,28.3,00.0,38.3,31.3,29.2,0002.3,0015.97,0022.45,0014.95
2021-08-29 23:44:00,,0828.0,5.00,0.00,29.4,28.5,00.0,38.3,31.4,29.3,0002.5,0016.07,0022.77,0015.02
2021-08-29 23:45:00,,0828.0,5.00,0.00,29.5,28.7,00.0,38.3,31.4,29.3,0002.5,0016.15,0023.02,0015.09
2021-08-29 23:46:00,,0828.0,5.00,0.00,29.5,28.5,00.0,38.4,31.4,29.5,0002.4,0016.22,0023.51,0015.16
2021-08-29 23:47:00,,0828.0,5.01,0.00,29.4,26.8,00.0,38.3,30.9,29.6,0002.4,0016.33,0023.68,0015.21
2021-08-29 23:48:00,,0828.0,4.99,0.00,29.3,25.9,00.0,38.3,30.6,29.9,0002.4,0016.35,0023.69,0015.24
2021-08-29 23:49:00,,0827.9,5.00,0.00,29.2,26.1,00.0,38.3,30.7,29.8,0002.3,0016.39,0023.51,0015.28
2021-08-29 23:50:00,,0827.9,5.00,0.00,29.1,26.5,00.0,38.3,30.8,29.4,0002.4,0016.40,0023.23,0015.32
2021-08-29 23:51:00,,0828.0,5.01,0.00,29.1,27.0,00.0,38.3,30.9,29.4,0002.4,0016.42,0023.52,0015.35
2021-08-29 23:52:00,,0828.0,4.99,0.00,29.2,27.4,00.0,38.3,31.0,29.3,0002.4,0016.47,0023.76,0015.41
2021-08-29 23:53:00,,0827.8,5.00,0.00,29.2,27.8,00.0,38.3,31.1,29.4,0002.4,0016.51,0023.77,0015.45
2021-08-29 23:54:00,,0827.9,5.01,0.00,29.3,28.1,00.0,38.3,31.2,29.4,0002.4,0016.57,0023.21,0015.48
2021-08-29 23:55:00,,0827.9,4.99,0.00,29.4,28.3,00.0,38.3,31.3,29.5,0002.3,0016.51,0022.89,0015.46
2021-08-29 23:56:00,,0827.9,5.00,0.00,29.4,28.5,00.0,38.3,31.4,29.1,0002.1,0016.49,0022.79,0015.45
2021-08-29 23:57:00,,0827.9,5.02,0.00,29.5,28.7,00.0,38.4,31.5,29.2,0002.1,0016.46,0022.49,0015.44
2021-08-29 23:58:00,,0827.8,5.01,0.00,29.5,28.1,00.0,38.4,31.3,29.3,0002.0,0016.46,0024.35,0015.45
2021-08-29 23:59:00,,0827.9,5.00,0.00,29.4,26.4,00.0,38.4,30.8,29.6,0001.9,0016.48,0025.30,0015.47
